DateTimeUTC,F1_A11,F1_S11,BsB_S11,BsG_S11,BsR_S11,BbsB_S11,BbsG_S11,BbsR_S11,BaB_A11,BaG_A11,BaR_A11,Tu_S11,T_S11,Uu_S11,U_S11,P_S11,T1_A11
2021-04-27T11:00:00Z,00040200,20000000,,,,,,,0000.17,0000.64,0000.29,19.3,26.1,06.5,04.3,0684.1,31.2
2021-04-27T11:01:00Z,00040200,20000000,,,,,,,0000.18,-000.19,0000.01,19.3,26.1,06.5,04.3,0684.1,31.2
2021-04-27T11:02:00Z,00040200,20000000,,,,,,,0000.11,0000.19,0000.07,19.3,26.1,06.5,04.3,0684.1,31.2
2021-04-27T11:03:00Z,00040200,60000000,,,,,,,0000.55,0000.76,0000.39,19.3,26.2,06.5,04.3,0684.1,31.2
2021-04-27T11:04:00Z,00040200,40000000,0000.36,0000.17,-000.01,0000.51,0000.18,0000.32,0000.04,-000.05,0000.34,19.4,26.0,06.8,04.6,0685.0,31.2
2021-04-27T11:05:00Z,00040200,00000000,-000.09,0000.19,0000.36,0000.31,0000.09,0000.02,0000.34,0000.35,-000.02,19.5,26.0,06.9,04.7,0685.1,31.2
2021-04-27T11:06:00Z,00040200,00000000,0000.08,0000.18,0000.04,0000.56,-000.16,-000.05,0000.01,-000.24,0000.18,19.5,26.0,07.1,04.8,0685.1,31.2
2021-04-27T11:07:00Z,00040200,00000000,0000.65,0000.03,0000.16,0000.39,0000.28,-000.12,0000.41,0000.31,0000.03,19.5,26.0,06.9,04.7,0685.1,31.2
2021-04-27T11:08:00Z,00040200,00000000,0000.45,0000.14,0000.03,0000.09,0000.14,-000.08,0000.21,0000.42,0000.25,19.5,26.0,07.1,04.8,0685.1,31.2
2021-04-27T11:09:00Z,00040200,00000000,0000.99,0000.48,0000.26,0000.21,0000.26,0000.02,0000.12,0000.19,0000.31,19.5,26.0,07.2,04.8,0685.1,31.2
2021-04-27T11:10:00Z,00040200,00000000,0000.42,0000.38,-000.04,0000.56,0000.13,-000.03,0000.34,0000.30,0000.12,19.5,26.0,07.0,04.8,0685.1,31.2
2021-04-27T11:11:00Z,00040200,00000000,0000.35,0000.34,-000.08,0000.59,0000.50,0000.22,0000.19,0000.09,-000.18,19.5,26.0,07.0,04.7,0685.1,31.2
2021-04-27T11:12:00Z,00040200,00000000,0000.83,0000.46,0000.25,-000.30,0000.24,-000.11,-000.26,-000.40,-000.05,19.5,26.0,07.0,04.7,0685.1,31.2
2021-04-27T11:13:00Z,00040200,00000000,0000.58,0000.69,0000.39,0000.69,0000.02,-000.05,0000.16,0000.26,0000.39,19.6,26.0,06.7,04.5,0685.1,31.2
2021-04-27T11:14:00Z,00040200,00000000,0001.84,0001.04,0000.34,0000.43,0000.28,-000.15,0000.02,-000.08,-000.41,19.6,26.0,06.6,04.5,0685.1,31.2
2021-04-27T11:15:00Z,00040200,00000000,0001.04,0000.72,0000.66,0000.49,0000.10,0000.22,0000.48,0000.50,0000.57,19.6,26.0,06.6,04.4,0685.1,31.2
2021-04-27T11:16:00Z,00040200,00000000,0000.82,0000.71,0000.34,0000.70,0000.48,0000.10,0000.04,0000.47,0000.05,19.6,26.0,06.7,04.5,0685.1,31.2
2021-04-27T11:17:00Z,00040200,00000000,0001.72,0001.10,0000.75,0000.58,0000.13,0000.17,0000.80,0000.23,0000.58,19.6,26.0,06.6,04.5,0685.1,31.2
2021-04-27T11:18:00Z,00040200,00000000,0000.66,0000.54,0000.06,0000.09,0000.18,0000.05,0000.34,0000.53,0000.18,19.6,26.0,06.7,04.5,0685.1,31.2
2021-04-27T11:19:00Z,00040200,00000000,0000.51,0000.34,0000.36,-000.01,0000.07,0000.03,0000.18,0000.56,0000.31,19.6,26.0,06.9,04.7,0685.1,31.2
2021-04-27T11:20:00Z,00040200,00000000,0000.94,0000.76,0000.46,0000.44,0000.36,0000.30,0000.34,-000.44,0000.45,19.6,26.0,06.8,04.6,0685.1,31.2
2021-04-27T11:21:00Z,00040200,00000000,0001.64,0000.83,0000.68,0000.13,0000.35,-000.24,0000.48,0000.60,0000.17,19.6,26.0,06.8,04.6,0685.1,31.2
2021-04-27T11:22:00Z,00040200,00000000,0000.96,0000.84,0000.50,0000.73,0000.31,0000.17,0000.29,0000.43,0000.26,19.6,26.1,06.8,04.6,0685.1,31.2
2021-04-27T11:23:00Z,00040200,00000000,0000.64,0000.94,0000.40,0000.07,-000.20,0000.36,0000.44,0000.44,0000.09,19.6,26.1,06.7,04.6,0685.2,31.2
2021-04-27T11:24:00Z,00040200,00000000,0001.48,0000.83,0000.75,0000.73,0000.23,0000.24,0000.47,0000.47,0000.78,19.6,26.1,06.8,04.6,0685.2,31.2
2021-04-27T11:25:00Z,00040200,00000000,0001.27,0000.68,0000.38,0000.23,0000.11,-000.16,0000.33,0000.27,-000.14,19.6,26.1,06.8,04.6,0685.2,31.2
2021-04-27T11:26:00Z,00040200,00000000,0001.08,0000.59,0000.49,0000.18,0000.31,0000.02,0000.52,0000.37,0000.53,19.7,26.1,06.9,04.7,0685.2,31.2
2021-04-27T11:27:00Z,00040200,00000000,0000.91,0000.66,0000.94,0000.82,0000.19,-000.01,0000.49,0000.52,0000.29,19.7,26.1,06.9,04.7,0685.2,31.2
2021-04-27T11:28:00Z,00040200,00000000,0001.21,0000.88,0000.31,0000.78,0000.18,0000.27,0000.37,0000.31,0000.34,19.7,26.1,06.9,04.7,0685.2,31.3
2021-04-27T11:29:00Z,00040200,00000000,0000.90,0000.90,0000.40,0000.95,0000.18,0000.01,0000.66,0000.57,0000.21,19.7,26.1,06.9,04.7,0685.2,31.2
2021-04-27T11:30:00Z,00040200,00000000,0001.26,0000.88,0000.46,0000.42,0000.26,0000.18,0000.04,0000.22,0000.35,19.7,26.1,06.9,04.7,0685.2,31.2
2021-04-27T11:31:00Z,00040200,00000000,0001.49,0001.02,0000.61,0000.38,0000.26,0000.30,0000.34,0000.27,0000.18,19.7,26.1,06.9,04.7,0685.1,31.2
2021-04-27T11:32:00Z,00040200,00000000,0001.09,0000.96,0000.72,0000.16,0000.44,-000.01,0000.43,0000.51,0000.23,19.7,26.1,06.9,04.7,0685.1,31.3
2021-04-27T11:33:00Z,00040200,00000000,0000.94,0000.97,0000.74,0000.30,0000.22,0000.35,0000.53,0000.13,0000.26,19.7,26.1,06.9,04.7,0685.1,31.2
2021-04-27T11:34:00Z,00040200,00000000,0001.52,0000.95,0000.81,0000.01,0000.11,0000.27,0000.32,0000.55,0000.34,19.7,26.1,06.8,04.6,0685.1,31.2
2021-04-27T11:35:00Z,00040200,00000000,0002.37,0001.16,0000.49,0000.12,0000.19,0000.03,0000.56,0000.32,0000.15,19.8,26.1,06.8,04.6,0685.1,31.2
2021-04-27T11:36:00Z,00040200,00000000,0001.24,0001.25,0000.45,-000.01,0000.22,0000.05,-000.10,0000.25,0000.01,19.8,26.1,06.7,04.6,0685.1,31.2
2021-04-27T11:37:00Z,00040200,00000000,0001.95,0000.81,0000.54,-000.03,0000.34,0000.03,0000.27,-000.09,0000.51,19.8,26.1,06.7,04.5,0685.1,31.2
2021-04-27T11:38:00Z,00040200,00000000,0001.09,0000.94,0000.58,0000.26,0000.41,0000.15,0000.44,0000.75,0000.10,19.8,26.1,06.7,04.5,0685.2,31.2
2021-04-27T11:39:00Z,00040200,00000000,0001.64,0000.66,0000.77,-000.01,0000.31,0000.04,0000.36,0000.19,0000.21,19.8,26.2,06.5,04.4,0685.2,31.2
2021-04-27T11:40:00Z,00040200,00000000,0001.37,0001.02,0000.78,0000.65,0000.55,0000.07,0000.50,0000.50,0000.49,19.8,26.2,06.6,04.5,0685.2,31.2
2021-04-27T11:41:00Z,00040200,00000000,0000.47,0000.98,0000.91,0000.54,0000.07,-000.29,0000.70,0000.22,0000.31,19.8,26.2,06.6,04.5,0685.2,31.2
2021-04-27T11:42:00Z,00040200,00000000,0000.88,0000.95,0000.75,0000.68,0000.25,0000.21,0000.43,0000.83,0000.35,19.8,26.2,06.6,04.5,0685.2,31.2
2021-04-27T11:43:00Z,00040200,00000000,0001.83,0000.58,0000.39,0000.56,0000.19,0000.03,0000.28,0000.16,0000.23,19.8,26.2,06.5,04.5,0685.2,31.2
2021-04-27T11:44:00Z,00040200,00000000,0000.93,0000.78,0000.44,0000.22,0000.20,-000.09,0000.57,0000.56,0000.39,19.8,26.2,06.6,04.5,0685.2,31.2
2021-04-27T11:45:00Z,00040200,00000000,0001.12,0000.69,0000.61,0000.54,0000.08,-000.01,0000.07,0000.17,0000.32,19.8,26.2,06.5,04.4,0685.2,31.2
2021-04-27T11:46:00Z,00040200,00000000,0000.71,0000.94,0000.72,0000.91,0000.56,0000.13,0000.68,0000.25,0000.03,19.8,26.2,06.5,04.4,0685.2,31.2
2021-04-27T11:47:00Z,00040200,00000000,0001.14,0000.90,0000.40,-000.54,0000.13,0000.20,0000.53,0000.54,0000.49,19.8,26.2,06.5,04.4,0685.2,31.2
2021-04-27T11:48:00Z,00040200,00000000,0000.91,0000.95,0000.43,0000.84,0000.27,0000.03,-000.07,0000.23,0000.05,19.9,26.2,06.4,04.4,0685.2,31.3
2021-04-27T11:49:00Z,00040200,00000000,0001.86,0000.82,0000.74,0000.85,0000.44,-000.04,0000.77,0000.71,0000.43,19.9,26.2,06.4,04.4,0685.2,31.2
2021-04-27T11:50:00Z,00040200,00000000,0001.52,0000.84,0000.48,0000.61,0000.24,-000.07,0000.01,-000.47,0000.30,19.9,26.2,06.6,04.5,0685.2,31.3
2021-04-27T11:51:00Z,00040200,00000000,0000.91,0000.63,0000.51,0000.50,0000.29,0000.14,-000.19,0000.20,-000.24,19.9,26.2,06.3,04.3,0685.2,31.2
2021-04-27T11:52:00Z,00040200,00000000,0001.19,0000.57,0000.43,0000.56,0000.39,0000.18,0000.50,0000.08,0000.08,19.9,26.3,06.1,04.1,0685.2,31.2
2021-04-27T11:53:00Z,00040200,00000000,0001.57,0000.86,0000.91,0000.84,0000.30,0000.22,0000.45,0000.85,0000.58,19.9,26.3,06.0,04.1,0685.2,31.2
2021-04-27T11:54:00Z,00040200,00000000,0001.69,0000.75,0000.37,0000.44,0000.21,0000.20,0000.44,0000.38,0000.18,19.9,26.3,06.1,04.2,0685.2,31.2
2021-04-27T11:55:00Z,00040200,00000000,0001.12,0000.98,0000.69,0000.14,0000.35,0000.41,0000.72,0000.30,0000.60,19.9,26.3,06.2,04.2,0685.2,31.2
2021-04-27T11:56:00Z,00040200,00000000,0002.03,0000.90,0000.23,0000.42,0000.25,-000.17,0000.71,0000.63,0000.54,19.9,26.3,06.3,04.3,0685.2,31.3
2021-04-27T11:57:00Z,00040200,40000000,,,,,,,0000.50,0000.53,0000.36,20.0,26.3,07.0,04.8,0685.2,31.2
2021-04-27T11:58:00Z,00040200,60000000,,,,,,,0000.02,0000.22,-000.20,19.8,26.4,06.6,04.4,0684.2,31.3
2021-04-27T11:59:00Z,00040200,20000000,,,,,,,-000.22,-000.36,0000.37,19.8,26.5,06.4,04.3,0684.2,31.2
